#timestamp,LO_Frequency,Hit,StdDev 
1697288415.4,286047002.6,N
1697288435.2,286047001.5,N
1697288455.1,286047001.9,N
1697288456.0,286047001.9,N
1697288475.8,286047000.5,N
1697288495.6,286047000.0,N
1697288515.5,286047001.2,N
1697288535.3,286046998.2,N
1697288555.1,286046997.0,N
1697288575.9,286046997.7,N
1697288595.7,286046997.8,N
1697288615.6,286046996.9,N
1697288635.4,286046999.2,N
1697288655.2,286046996.7,N
1697288675.1,286046999.6,N
1697288676.0,286046999.6,N
1697288695.8,286046999.1,N
1697288715.7,286046999.3,N
1697288735.5,286046998.7,N
1697288755.3,286046999.0,N
1697288775.2,286046998.6,N
1697288795.0,286046999.6,N
1697288795.9,286046999.6,N
1697288815.8,286046997.2,N
1697288835.6,286046994.9,N
1697288855.4,286046994.9,N
1697288875.3,286046996.7,N
1697288895.1,286046997.7,N
1697288915.8,286046997.4,N
1697288935.7,286046995.2,N
1697288955.5,286046995.2,N
1697288975.4,286046997.9,N
1697288995.2,286046995.1,N
1697289015.0,286046997.4,N
1697289015.9,286046997.4,N
1697289035.8,286046997.5,N
1697289055.6,286046995.4,N
1697289075.5,286046995.3,Y
1697289095.8,286046999.4,P
1697289115.7,286046998.4,N
1697289135.5,286046999.3,N
1697289155.3,286046999.0,N
1697289175.2,286046998.7,N
1697289195.0,286046999.3,N
1697289195.9,286046999.3,N
1697289215.8,286046999.6,N
1697289235.6,286046999.6,N
1697289255.4,286046996.8,Y
1697289275.3,286046999.1,P
1697289295.1,286046999.5,P
1697289315.8,286046997.0,P
1697289335.7,286046999.5,N
1697289355.5,286046999.4,N
1697289375.4,286046999.1,N
1697289395.2,286046998.9,N
1697289415.0,286046998.7,N
1697289415.9,286046998.7,N
1697289435.8,286046998.8,N
1697289455.6,286046999.6,N
1697289475.5,286046997.2,Y
1697289495.3,286046999.4,P
1697289515.1,286046998.8,P
1697289535.9,286046996.9,P
1697289555.7,286046996.8,Y
1697289575.6,286046998.2,P
1697289595.4,286046999.2,P
1697289615.2,286046997.0,P
1697289635.1,286046996.5,Y
1697289636.0,286046996.5,P
1697289655.8,286047001.1,N
1697289675.7,286047000.0,N
1697289695.5,286046998.1,N
1697289715.3,286047001.0,N
1697289735.2,286047000.0,N
1697289755.0,286046999.7,N
1697289755.9,286046999.7,N
1697289775.7,286046999.7,N
1697289795.6,286047002.6,N
1697289815.4,286047002.8,N
1697289835.3,286046999.7,N
1697289855.1,286047000.2,N
1697289856.0,286047000.2,N
1697289875.8,286047000.1,N
1697289895.7,286047001.0,N
1697289915.5,286047000.7,N
1697289935.3,286047000.8,N
1697289955.2,286047001.2,N
1697289975.0,286046998.5,N
1697289975.9,286046998.5,N
1697289995.8,286046998.2,N
1697290015.6,286047000.7,N
1697290035.4,286047001.2,N
1697290055.3,286046998.3,N
1697290075.1,286047001.0,N
1697290095.8,286047000.0,N
1697290115.7,286047000.8,N
1697290135.5,286047001.0,N
1697290155.4,286047000.7,N
1697290175.2,286047000.6,N
1697290195.0,286047001.0,N
1697290195.9,286047001.0,N
1697290215.8,286047000.6,N
1697290235.6,286047000.9,N
1697290255.4,286046998.4,N
1697290275.3,286046998.4,N
1697290295.1,286047001.2,N
1697290315.9,286047000.4,N
1697290335.7,286046999.9,N
1697290355.5,286047000.6,N
1697290375.4,286046999.9,N
1697290395.2,286047002.5,N
1697290415.0,286047002.8,N
1697290415.9,286047002.8,N
1697290435.8,286046998.3,N
1697290455.6,286046998.8,N
1697290475.5,286046998.3,N
1697290495.3,286046998.4,N
1697290515.1,286047001.2,N
1697290535.9,286047000.8,N
1697290555.7,286046998.7,N
1697290575.5,286046999.0,N
1697290595.4,286046999.3,N
1697290615.2,286046999.2,N
1697290635.1,286046998.7,N
1697290636.0,286046998.7,N
1697290655.8,286046999.3,N
1697290675.6,286046999.0,N
1697290695.5,286046999.3,N
1697290715.3,286046999.3,N
1697290735.1,286046998.4,N
1697290755.9,286046998.5,N
1697290775.7,286046998.1,N
1697290795.6,286046999.3,N
1697290815.4,286046998.6,N
1697290835.2,286046996.6,N
1697290855.1,286046997.8,N
1697290856.0,286046997.8,N
1697290875.8,286046997.3,N
1697290895.7,286046997.2,N
1697290915.5,286046998.9,N
1697290935.3,286046999.4,N
1697290955.2,286046996.5,N
1697290975.0,286046997.1,N
1697290975.9,286046997.1,N
1697290995.7,286046995.6,Y
1697291015.6,286046997.2,P
1697291035.4,286046999.4,N
1697291055.3,286046999.2,N
1697291075.1,286046998.7,N
1697291076.0,286046998.7,N
1697291095.8,286046998.8,N
1697291115.7,286046998.7,N
1697291135.5,286046998.7,N
1697291155.3,286046999.0,N
1697291175.2,286046999.1,N
1697291195.0,286046999.5,N
1697291195.9,286046999.5,N
1697291215.8,286046999.0,N
1697291235.6,286046999.6,N
1697291255.4,286046999.3,N
1697291275.3,286046999.2,N
1697291295.1,286046999.0,N
1697291315.8,286046999.0,N
1697291335.7,286046999.5,N
1697291355.5,286046999.1,N
1697291375.4,286046998.1,Y
1697291395.2,286047000.7,P
1697291415.0,286047000.4,N
1697291415.9,286047000.4,N
1697291435.8,286047000.4,N
1697291455.6,286047000.2,N
1697291475.5,286047000.8,N
1697291495.3,286047000.2,N
1697291515.1,286047000.8,N
1697291535.9,286046998.4,Y
1697291555.7,286046998.5,P
1697291575.5,286046998.2,N
1697291595.4,286046998.2,N
1697291615.2,286046998.4,N
1697291635.1,286046998.4,N
1697291636.0,286046998.4,N
1697291655.8,286046998.9,N
1697291675.6,286046999.6,N
1697291695.5,286046998.5,N
1697291715.3,286046998.1,N
1697291735.1,286046998.6,N
1697291755.9,286046998.2,N
1697291775.7,286047001.0,N
1697291795.6,286047000.4,N
1697291815.4,286046998.4,N
1697291835.2,286046998.2,N
1697291855.1,286047000.7,N
1697291856.0,286047000.7,N
1697291875.8,286047000.6,N
1697291895.6,286047000.3,N
1697291915.5,286047002.8,N
1697291935.3,286047002.8,N
1697291955.2,286047002.2,N
1697291975.9,286047004.3,N
1697291995.7,286047001.7,N
